When you browse on this site, cookies collect data to enhance your experience and personalize the content and advertising you see.
Visit our Privacy Policy to learn more. By continuing to use the site, you agree to this use of cookies and data.

Tiempo cada hora Ordino

Hoy, 14 Agosto, Viernes

Tiempo Temperatura Precipitaciones Viento Presión Humedad
00:00 +12°C° 0 mm 0 mps 635 mmHg 88%
01:00 +13°C° 0 mm 1 mps 635 mmHg 87%
02:00 +12°C° 0 mm 1 mps 634 mmHg 86%
03:00 +12°C° 0 mm 1 mps 634 mmHg 86%
04:00 +13°C° 0 mm 1 mps 634 mmHg 84%
05:00 +13°C° 0 mm 1 mps 635 mmHg 82%
06:00 +14°C° 0 mm 1 mps 635 mmHg 80%
07:00 +16°C° 0 mm 1 mps 636 mmHg 70%
08:00 +20°C° 0 mm 1 mps 636 mmHg 60%
09:00 +22°C° 0 mm 1 mps 637 mmHg 50%
10:00 +23°C° 0 mm 1 mps 637 mmHg 48%
11:00 +24°C° 0 mm 2 mps 637 mmHg 46%
12:00 +25°C° 0 mm 2 mps 638 mmHg 44%
13:00 +24°C° 0.3 mm 2 mps 637 mmHg 49%
14:00 +23°C° 0.3 mm 2 mps 636 mmHg 53%
15:00 +21°C° 0.3 mm 2 mps 636 mmHg 58%
16:00 +21°C° 0.5 mm 2 mps 635 mmHg 64%
17:00 +21°C° 0.5 mm 1 mps 635 mmHg 70%
18:00 +18°C° 0.5 mm 0 mps 635 mmHg 75%
19:00 +18°C° 0.2 mm 1 mps 634 mmHg 79%
20:00 +16°C° 0.2 mm 1 mps 634 mmHg 83%
21:00 +14°C° 0.2 mm 1 mps 633 mmHg 86%
22:00 +14°C° 0 mm 1 mps 633 mmHg 86%
23:00 +14°C° 0 mm 1 mps 634 mmHg 86%

Mañana, 15 Agosto, Sábado

Tiempo Temperatura Precipitaciones Viento Presión Humedad
00:00 +14°C° 0 mm 1 mps 634 mmHg 87%
01:00 +14°C° 0 mm 1 mps 633 mmHg 85%
02:00 +14°C° 0 mm 1 mps 633 mmHg 84%
03:00 +13°C° 0 mm 1 mps 632 mmHg 82%
04:00 +14°C° 0 mm 1 mps 632 mmHg 81%
05:00 +14°C° 0 mm 1 mps 633 mmHg 80%
06:00 +15°C° 0 mm 1 mps 633 mmHg 79%
07:00 +17°C° 0 mm 2 mps 634 mmHg 66%
08:00 +20°C° 0 mm 2 mps 635 mmHg 53%
09:00 +24°C° 0 mm 2 mps 636 mmHg 40%
10:00 +25°C° 0 mm 2 mps 636 mmHg 38%
11:00 +25°C° 0 mm 3 mps 636 mmHg 35%
12:00 +26°C° 0 mm 3 mps 636 mmHg 33%
13:00 +26°C° 0 mm 3 mps 635 mmHg 37%
14:00 +25°C° 0 mm 3 mps 635 mmHg 41%
15:00 +25°C° 0 mm 3 mps 634 mmHg 44%
16:00 +23°C° 0.3 mm 2 mps 633 mmHg 54%
17:00 +20°C° 0.3 mm 2 mps 633 mmHg 64%
18:00 +20°C° 0.3 mm 1 mps 632 mmHg 74%
19:00 +19°C° 0.1 mm 1 mps 632 mmHg 76%
20:00 +16°C° 0.1 mm 1 mps 632 mmHg 78%
21:00 +15°C° 0.1 mm 1 mps 632 mmHg 80%
22:00 +15°C° 0 mm 1 mps 632 mmHg 81%
23:00 +14°C° 0 mm 1 mps 632 mmHg 83%

Pasado mañana, 16 Agosto, Domingo

Tiempo Temperatura Precipitaciones Viento Presión Humedad
00:00 +14°C° 0 mm 1 mps 632 mmHg 84%
01:00 +13°C° 0 mm 0 mps 631 mmHg 85%
02:00 +13°C° 0 mm 0 mps 631 mmHg 85%
03:00 +13°C° 0 mm 0 mps 631 mmHg 86%
04:00 +13°C° 0 mm 0 mps 631 mmHg 86%
05:00 +13°C° 0 mm 0 mps 631 mmHg 86%
06:00 +13°C° 0 mm 0 mps 632 mmHg 85%
07:00 +16°C° 0 mm 1 mps 632 mmHg 75%
08:00 +19°C° 0 mm 1 mps 633 mmHg 65%
09:00 +21°C° 0 mm 1 mps 634 mmHg 54%
10:00 +21°C° 0 mm 2 mps 634 mmHg 49%
11:00 +23°C° 0 mm 2 mps 635 mmHg 43%
12:00 +24°C° 0 mm 3 mps 635 mmHg 37%
13:00 +24°C° 0 mm 3 mps 635 mmHg 38%
14:00 +22°C° 0 mm 3 mps 634 mmHg 39%
15:00 +22°C° 0 mm 3 mps 634 mmHg 40%
16:00 +21°C° 0 mm 3 mps 633 mmHg 48%
17:00 +19°C° 0 mm 2 mps 633 mmHg 56%
18:00 +19°C° 0 mm 1 mps 632 mmHg 64%
19:00 +16°C° 0 mm 1 mps 632 mmHg 70%
20:00 +15°C° 0 mm 1 mps 632 mmHg 76%
21:00 +12°C° 0 mm 0 mps 632 mmHg 82%
22:00 +13°C° 0 mm 1 mps 632 mmHg 83%
23:00 +13°C° 0 mm 1 mps 632 mmHg 83%

17 Agosto, Lunes

Tiempo Temperatura Precipitaciones Viento Presión Humedad
00:00 +12°C° 0 mm 1 mps 631 mmHg 84%
01:00 +12°C° 0 mm 1 mps 631 mmHg 80%
02:00 +12°C° 0 mm 1 mps 631 mmHg 77%
03:00 +12°C° 0 mm 1 mps 632 mmHg 73%
04:00 +11°C° 0 mm 0 mps 632 mmHg 74%
05:00 +12°C° 0 mm 0 mps 632 mmHg 75%
06:00 +12°C° 0 mm 0 mps 632 mmHg 76%
07:00 +15°C° 0 mm 1 mps 633 mmHg 70%
08:00 +18°C° 0 mm 1 mps 634 mmHg 63%
09:00 +20°C° 0 mm 1 mps 635 mmHg 57%
10:00 +20°C° 0.1 mm 2 mps 635 mmHg 56%
11:00 +20°C° 0.1 mm 2 mps 635 mmHg 55%
12:00 +21°C° 0.1 mm 2 mps 635 mmHg 53%
13:00 +20°C° 0.5 mm 2 mps 635 mmHg 58%
14:00 +20°C° 0.5 mm 2 mps 634 mmHg 63%
15:00 +19°C° 0.5 mm 2 mps 634 mmHg 68%
16:00 +19°C° 0.5 mm 1 mps 634 mmHg 73%
17:00 +18°C° 0.5 mm 1 mps 633 mmHg 77%
18:00 +15°C° 0.5 mm 0 mps 633 mmHg 82%
19:00 +15°C° 0.1 mm 1 mps 633 mmHg 86%
20:00 +14°C° 0.1 mm 1 mps 633 mmHg 89%
21:00 +13°C° 0.1 mm 1 mps 633 mmHg 93%
22:00 +13°C° 0 mm 1 mps 633 mmHg 92%
23:00 +12°C° 0 mm 1 mps 633 mmHg 92%

18 Agosto, Martes

Tiempo Temperatura Precipitaciones Viento Presión Humedad
00:00 +12°C° 0 mm 1 mps 633 mmHg 91%
01:00 +12°C° 0 mm 1 mps 633 mmHg 90%
02:00 +12°C° 0 mm 1 mps 633 mmHg 88%
03:00 +12°C° 0 mm 1 mps 633 mmHg 86%
04:00 +13°C° 0 mm 1 mps 633 mmHg 84%
05:00 +13°C° 0 mm 1 mps 633 mmHg 82%
06:00 +13°C° 0 mm 1 mps 633 mmHg 81%
07:00 +14°C° 0.2 mm 1 mps 634 mmHg 79%
08:00 +15°C° 0.2 mm 1 mps 634 mmHg 77%
09:00 +16°C° 0.2 mm 1 mps 635 mmHg 75%
10:00 +16°C° 0.2 mm 1 mps 635 mmHg 72%
11:00 +18°C° 0.2 mm 1 mps 635 mmHg 68%
12:00 +19°C° 0.2 mm 1 mps 635 mmHg 64%
13:00 +19°C° 0.3 mm 1 mps 635 mmHg 66%
14:00 +19°C° 0.3 mm 1 mps 635 mmHg 67%
15:00 +19°C° 0.3 mm 1 mps 634 mmHg 69%
16:00 +18°C° 0.3 mm 1 mps 634 mmHg 72%
17:00 +18°C° 0.3 mm 1 mps 634 mmHg 76%
18:00 +15°C° 0.3 mm 0 mps 634 mmHg 79%
19:00 +15°C° 0 mm 1 mps 633 mmHg 82%
20:00 +14°C° 0 mm 1 mps 633 mmHg 85%
21:00 +12°C° 0 mm 1 mps 633 mmHg 88%
22:00 +12°C° 0 mm 1 mps 633 mmHg 87%
23:00 +12°C° 0 mm 1 mps 633 mmHg 87%

19 Agosto, Miércoles

Tiempo Temperatura Precipitaciones Viento Presión Humedad
00:00 +12°C° 0 mm 1 mps 633 mmHg 86%
01:00 +12°C° 0 mm 1 mps 632 mmHg 85%
02:00 +12°C° 0 mm 1 mps 632 mmHg 85%
03:00 +12°C° 0 mm 1 mps 632 mmHg 84%
04:00 +12°C° 0 mm 1 mps 632 mmHg 83%
05:00 +12°C° 0 mm 1 mps 632 mmHg 82%
06:00 +13°C° 0 mm 1 mps 632 mmHg 81%
07:00 +15°C° 0 mm 1 mps 632 mmHg 72%
08:00 +18°C° 0 mm 2 mps 633 mmHg 64%
09:00 +20°C° 0 mm 2 mps 634 mmHg 55%
10:00 +20°C° 0 mm 2 mps 634 mmHg 54%
11:00 +21°C° 0 mm 2 mps 634 mmHg 54%
12:00 +21°C° 0 mm 2 mps 634 mmHg 54%
13:00 +21°C° 0 mm 2 mps 634 mmHg 53%
14:00 +23°C° 0 mm 2 mps 633 mmHg 52%
15:00 +23°C° 0 mm 2 mps 633 mmHg 51%
16:00 +21°C° 0 mm 2 mps 633 mmHg 56%
17:00 +22°C° 0 mm 1 mps 632 mmHg 61%
18:00 +21°C° 0 mm 1 mps 632 mmHg 66%
19:00 +19°C° 0 mm 1 mps 632 mmHg 70%
20:00 +18°C° 0 mm 1 mps 631 mmHg 73%
21:00 +16°C° 0 mm 1 mps 631 mmHg 76%
22:00 +16°C° 0 mm 1 mps 631 mmHg 77%
23:00 +15°C° 0 mm 2 mps 631 mmHg 77%
Mostrar más